Time,TemperatureF,DewpointF,PressureIn,WindDirection,WindDirectionDegrees,WindSpeedMPH,WindSpeedGustMPH,Humidity,HourlyPrecipIn,Conditions,Clouds,dailyrainin,SolarRadiationWatts/m^2,SoftwareType,DateUTC
2013-09-14 00:02:00,57.0,52.0,-100.00,WSW,237,12.0,17.0,84,0.03,,,0.04,0.000000,,2013-09-14 06:02:00,
2013-09-14 00:12:00,57.0,52.0,-100.00,WSW,237,12.0,17.0,84,0.03,,,0.04,0.000000,,2013-09-14 06:12:00,
2013-09-14 00:21:00,57.0,52.0,-100.00,WSW,237,12.0,17.0,84,0.03,,,0.04,0.000000,,2013-09-14 06:21:00,
2013-09-14 00:52:00,59.0,53.0,-100.00,WSW,251,12.0,19.0,81,0.02,,,0.06,0.000000,,2013-09-14 06:52:00,
2013-09-14 01:02:00,59.0,53.0,-100.00,WSW,251,12.0,19.0,81,0.02,,,0.06,0.000000,,2013-09-14 07:02:00,
2013-09-14 01:12:00,59.0,53.0,-100.00,WSW,251,12.0,19.0,81,0.02,,,0.06,0.000000,,2013-09-14 07:12:00,
2013-09-14 01:21:00,59.0,53.0,-100.00,WSW,251,12.0,19.0,81,0.02,,,0.06,0.000000,,2013-09-14 07:21:00,
2013-09-14 01:52:00,58.0,53.0,-100.00,WSW,252,16.0,24.0,82,0.09,,,0.15,0.000000,,2013-09-14 07:52:00,
2013-09-14 02:02:00,58.0,53.0,-100.00,WSW,252,16.0,24.0,82,0.09,,,0.15,0.000000,,2013-09-14 08:02:00,
2013-09-14 02:12:00,58.0,53.0,-100.00,WSW,252,16.0,24.0,82,0.09,,,0.15,0.000000,,2013-09-14 08:12:00,
2013-09-14 02:21:00,58.0,53.0,-100.00,WSW,252,16.0,24.0,82,0.09,,,0.15,0.000000,,2013-09-14 08:21:00,
2013-09-14 02:52:00,56.0,52.0,-100.00,WSW,239,11.0,18.0,86,0.07,,,0.22,0.000000,,2013-09-14 08:52:00,
2013-09-14 03:02:00,56.0,52.0,-100.00,WSW,239,11.0,18.0,86,0.07,,,0.22,0.000000,,2013-09-14 09:02:00,
2013-09-14 03:12:00,56.0,52.0,-100.00,WSW,239,11.0,18.0,86,0.07,,,0.22,0.000000,,2013-09-14 09:12:00,
2013-09-14 03:21:00,56.0,52.0,-100.00,WSW,239,11.0,18.0,86,0.07,,,0.22,0.000000,,2013-09-14 09:21:00,
2013-09-14 03:22:00,55.0,51.0,-100.00,WSW,239,9.0,15.0,87,0.09,,,0.31,0.000000,,2013-09-14 09:22:00,
2013-09-14 03:53:00,55.0,51.0,-100.00,WSW,239,9.0,15.0,87,0.09,,,0.31,0.000000,,2013-09-14 09:53:00,
2013-09-14 04:03:00,55.0,51.0,-100.00,WSW,239,9.0,15.0,87,0.09,,,0.31,0.000000,,2013-09-14 10:03:00,
2013-09-14 04:12:00,55.0,51.0,-100.00,WSW,239,9.0,15.0,87,0.09,,,0.31,0.000000,,2013-09-14 10:12:00,
2013-09-14 04:22:00,56.0,52.0,-100.00,WSW,244,7.0,14.0,87,0.14,,,0.45,0.000000,,2013-09-14 10:22:00,
2013-09-14 04:53:00,56.0,52.0,-100.00,WSW,244,7.0,14.0,87,0.14,,,0.45,0.000000,,2013-09-14 10:53:00,
2013-09-14 05:02:00,56.0,52.0,-100.00,WSW,244,7.0,14.0,87,0.14,,,0.45,0.000000,,2013-09-14 11:02:00,
2013-09-14 05:12:00,56.0,52.0,-100.00,WSW,244,7.0,14.0,87,0.14,,,0.45,0.000000,,2013-09-14 11:12:00,
2013-09-14 05:22:00,55.0,52.0,-100.00,WSW,248,8.0,13.0,88,0.07,,,0.52,0.000000,,2013-09-14 11:22:00,
2013-09-14 05:52:00,55.0,52.0,-100.00,WSW,248,8.0,13.0,88,0.07,,,0.52,0.000000,,2013-09-14 11:52:00,
2013-09-14 06:02:00,55.0,52.0,-100.00,WSW,248,8.0,13.0,88,0.07,,,0.52,0.000000,,2013-09-14 12:02:00,
2013-09-14 06:12:00,55.0,52.0,-100.00,WSW,248,8.0,13.0,88,0.07,,,0.52,0.000000,,2013-09-14 12:12:00,
2013-09-14 06:52:00,57.0,53.0,-100.00,North,356,7.0,14.0,87,0.07,,,0.59,0.000000,,2013-09-14 12:52:00,
2013-09-14 07:01:00,57.0,53.0,-100.00,North,356,7.0,14.0,87,0.07,,,0.59,0.000000,,2013-09-14 13:01:00,
2013-09-14 07:12:00,57.0,53.0,-100.00,North,356,7.0,14.0,87,0.07,,,0.59,0.000000,,2013-09-14 13:12:00,
2013-09-14 07:21:00,57.0,53.0,-100.00,North,356,7.0,14.0,87,0.07,,,0.59,0.000000,,2013-09-14 13:21:00,
2013-09-14 07:52:00,58.0,54.0,-100.00,West,281,9.0,16.0,86,0.07,,,0.66,0.000000,,2013-09-14 13:52:00,
2013-09-14 08:02:00,58.0,54.0,-100.00,West,281,9.0,16.0,86,0.07,,,0.66,0.000000,,2013-09-14 14:02:00,
2013-09-14 08:11:00,58.0,54.0,-100.00,West,281,9.0,16.0,86,0.07,,,0.66,0.000000,,2013-09-14 14:11:00,
2013-09-14 08:21:00,58.0,54.0,-100.00,West,281,9.0,16.0,86,0.07,,,0.66,0.000000,,2013-09-14 14:21:00,
2013-09-14 08:22:00,56.0,54.0,-100.00,West,276,8.0,13.0,93,0.22,,,0.88,3.000000,,2013-09-14 14:22:00,
2013-09-14 08:52:00,56.0,54.0,-100.00,West,276,8.0,13.0,93,0.22,,,0.88,3.000000,,2013-09-14 14:52:00,
2013-09-14 09:02:00,56.0,54.0,-100.00,West,276,8.0,13.0,93,0.22,,,0.88,3.000000,,2013-09-14 15:02:00,
2013-09-14 09:11:00,56.0,54.0,-100.00,West,276,8.0,13.0,93,0.22,,,0.88,3.000000,,2013-09-14 15:11:00,
2013-09-14 09:22:00,58.0,55.0,-100.00,WSW,246,14.0,18.0,89,0.09,,,0.97,37.000000,,2013-09-14 15:22:00,
2013-09-14 09:53:00,58.0,55.0,-100.00,WSW,246,14.0,18.0,89,0.09,,,0.97,37.000000,,2013-09-14 15:53:00,
2013-09-14 10:03:00,58.0,55.0,-100.00,WSW,246,14.0,18.0,89,0.09,,,0.97,37.000000,,2013-09-14 16:03:00,
2013-09-14 10:13:00,58.0,55.0,-100.00,WSW,246,14.0,18.0,89,0.09,,,0.97,37.000000,,2013-09-14 16:13:00,
2013-09-14 10:22:00,59.0,55.0,-100.00,WSW,237,8.0,16.0,87,0.02,,,0.99,56.000000,,2013-09-14 16:22:00,
2013-09-14 10:54:00,59.0,55.0,-100.00,WSW,237,8.0,16.0,87,0.02,,,0.99,56.000000,,2013-09-14 16:54:00,
2013-09-14 11:03:00,59.0,55.0,-100.00,WSW,237,8.0,16.0,87,0.02,,,0.99,56.000000,,2013-09-14 17:03:00,
2013-09-14 11:11:00,59.0,55.0,-100.00,WSW,237,8.0,16.0,87,0.02,,,0.99,56.000000,,2013-09-14 17:11:00,
2013-09-14 11:54:00,62.0,54.0,-100.00,West,274,10.0,16.0,76,0.00,,,0.99,118.000000,,2013-09-14 17:54:00,
2013-09-14 12:02:00,62.0,54.0,-100.00,West,274,10.0,16.0,76,0.00,,,0.99,118.000000,,2013-09-14 18:02:00,
2013-09-14 12:12:00,62.0,54.0,-100.00,West,274,10.0,16.0,76,0.00,,,0.99,118.000000,,2013-09-14 18:12:00,
2013-09-14 12:21:00,62.0,54.0,-100.00,West,274,10.0,16.0,76,0.00,,,0.99,118.000000,,2013-09-14 18:21:00,
2013-09-14 12:22:00,64.0,53.0,-100.00,WNW,286,9.0,16.0,68,0.00,,,0.99,233.000000,,2013-09-14 18:22:00,
2013-09-14 12:52:00,64.0,53.0,-100.00,WNW,286,9.0,16.0,68,0.00,,,0.99,233.000000,,2013-09-14 18:52:00,
2013-09-14 13:02:00,64.0,53.0,-100.00,WNW,286,9.0,16.0,68,0.00,,,0.99,233.000000,,2013-09-14 19:02:00,
2013-09-14 13:11:00,64.0,53.0,-100.00,WNW,286,9.0,16.0,68,0.00,,,0.99,233.000000,,2013-09-14 19:11:00,
2013-09-14 13:22:00,65.0,52.0,-100.00,NW,314,8.0,14.0,63,0.00,,,0.99,188.000000,,2013-09-14 19:22:00,
2013-09-14 13:52:00,65.0,52.0,-100.00,NW,314,8.0,14.0,63,0.00,,,0.99,188.000000,,2013-09-14 19:52:00,
2013-09-14 14:02:00,65.0,52.0,-100.00,NW,314,8.0,14.0,63,0.00,,,0.99,188.000000,,2013-09-14 20:02:00,
2013-09-14 14:12:00,65.0,52.0,-100.00,NW,314,8.0,14.0,63,0.00,,,0.99,188.000000,,2013-09-14 20:12:00,
2013-09-14 14:22:00,69.0,55.0,-100.00,NNW,327,6.0,9.0,60,0.00,,,0.99,211.000000,,2013-09-14 20:22:00,
2013-09-14 14:52:00,69.0,55.0,-100.00,NNW,327,6.0,9.0,60,0.00,,,0.99,211.000000,,2013-09-14 20:52:00,
2013-09-14 15:02:00,69.0,55.0,-100.00,NNW,327,6.0,9.0,60,0.00,,,0.99,211.000000,,2013-09-14 21:02:00,
2013-09-14 15:11:00,69.0,55.0,-100.00,NNW,327,6.0,9.0,60,0.00,,,0.99,211.000000,,2013-09-14 21:11:00,
2013-09-14 15:22:00,66.0,53.0,-100.00,North,1,8.0,13.0,62,0.00,,,-99.99,233.000000,,2013-09-14 21:22:00,
2013-09-14 15:54:00,66.0,53.0,-100.00,North,1,8.0,13.0,62,0.00,,,-99.99,233.000000,,2013-09-14 21:54:00,
2013-09-14 16:04:00,66.0,53.0,-100.00,North,1,8.0,13.0,62,0.00,,,-99.99,233.000000,,2013-09-14 22:04:00,
2013-09-14 16:13:00,66.0,53.0,-100.00,North,1,8.0,13.0,62,0.00,,,-99.99,233.000000,,2013-09-14 22:13:00,
2013-09-14 16:22:00,60.0,54.0,-100.00,SE,126,6.0,17.0,82,0.00,,,0.99,73.000000,,2013-09-14 22:22:00,
2013-09-14 16:53:00,60.0,54.0,-100.00,SE,126,6.0,17.0,82,0.00,,,0.99,73.000000,,2013-09-14 22:53:00,
2013-09-14 17:03:00,60.0,54.0,-100.00,SE,126,6.0,17.0,82,0.00,,,0.99,73.000000,,2013-09-14 23:03:00,
2013-09-14 17:11:00,60.0,54.0,-100.00,SE,126,6.0,17.0,82,0.00,,,0.99,73.000000,,2013-09-14 23:11:00,
2013-09-14 17:22:00,60.0,57.0,-100.00,South,185,5.0,10.0,89,0.06,,,-99.99,51.000000,,2013-09-14 23:22:00,
2013-09-14 17:53:00,60.0,57.0,-100.00,South,185,5.0,10.0,89,0.06,,,-99.99,51.000000,,2013-09-14 23:53:00,
2013-09-14 18:02:00,60.0,57.0,-100.00,South,185,5.0,10.0,89,0.06,,,-99.99,51.000000,,2013-09-15 00:02:00,
2013-09-14 18:12:00,60.0,57.0,-100.00,South,185,5.0,10.0,89,0.06,,,-99.99,51.000000,,2013-09-15 00:12:00,
2013-09-14 18:22:00,59.0,57.0,-100.00,South,191,3.0,11.0,92,0.00,,,1.05,28.000000,,2013-09-15 00:22:00,
2013-09-14 18:53:00,59.0,57.0,-100.00,South,191,3.0,11.0,92,0.00,,,1.05,28.000000,,2013-09-15 00:53:00,
2013-09-14 19:01:00,59.0,57.0,-100.00,South,191,3.0,11.0,92,0.00,,,1.05,28.000000,,2013-09-15 01:01:00,
2013-09-14 19:11:00,59.0,57.0,-100.00,South,191,3.0,11.0,92,0.00,,,1.05,28.000000,,2013-09-15 01:11:00,
2013-09-14 19:22:00,59.0,56.0,-100.00,WSW,249,7.0,10.0,91,0.01,,,1.06,13.000000,,2013-09-15 01:22:00,
2013-09-14 19:52:00,59.0,56.0,-100.00,WSW,249,7.0,10.0,91,0.01,,,1.06,13.000000,,2013-09-15 01:52:00,
2013-09-14 20:02:00,59.0,56.0,-100.00,WSW,249,7.0,10.0,91,0.01,,,1.06,13.000000,,2013-09-15 02:02:00,
2013-09-14 20:12:00,59.0,56.0,-100.00,WSW,249,7.0,10.0,91,0.01,,,1.06,13.000000,,2013-09-15 02:12:00,
2013-09-14 20:52:00,58.0,54.0,-100.00,NNW,333,4.0,9.0,86,0.00,,,1.06,0.000000,,2013-09-15 02:52:00,
2013-09-14 21:02:00,58.0,54.0,-100.00,NNW,333,4.0,9.0,86,0.00,,,1.06,0.000000,,2013-09-15 03:02:00,
2013-09-14 21:11:00,58.0,54.0,-100.00,NNW,333,4.0,9.0,86,0.00,,,1.06,0.000000,,2013-09-15 03:11:00,
2013-09-14 21:21:00,58.0,54.0,-100.00,NNW,333,4.0,9.0,86,0.00,,,1.06,0.000000,,2013-09-15 03:21:00,
2013-09-14 21:22:00,59.0,56.0,-100.00,WSW,243,5.0,7.0,90,0.00,,,1.06,0.000000,,2013-09-15 03:22:00,
2013-09-14 21:55:00,59.0,56.0,-100.00,WSW,243,5.0,7.0,90,0.00,,,1.06,0.000000,,2013-09-15 03:55:00,
2013-09-14 22:02:00,-999.0,-99.9,-100.00,WSW,243,5.0,7.0,-999,-99.99,,,-99.99,0.000000,,2013-09-15 04:02:00,
2013-09-14 22:13:00,59.0,56.0,-100.00,WSW,243,5.0,7.0,90,0.00,,,1.06,0.000000,,2013-09-15 04:13:00,
2013-09-14 22:22:00,59.0,52.0,-100.00,NW,318,2.0,6.0,79,0.00,,,1.05,0.000000,,2013-09-15 04:22:00,
2013-09-14 22:54:00,59.0,52.0,-100.00,NW,318,2.0,6.0,79,0.00,,,1.05,0.000000,,2013-09-15 04:54:00,
2013-09-14 23:03:00,59.0,52.0,-100.00,NW,318,2.0,6.0,79,0.00,,,1.05,0.000000,,2013-09-15 05:03:00,
2013-09-14 23:13:00,59.0,52.0,-100.00,NW,318,2.0,6.0,79,0.00,,,1.05,0.000000,,2013-09-15 05:13:00,
2013-09-14 23:52:00,60.0,54.0,-100.00,North,3,3.0,5.0,81,0.00,,,1.02,0.000000,,2013-09-15 05:52:00,